Time[GMT],salinity[psu](20m),sigma_t[kg/m^3](20m),conductivity[msiemens/cm](20m),temperature[C](20m)
2006-02-23 13:00,32.258,25.579,30.468,4.26
2006-02-23 14:00,32.271,25.603,30.370,4.13
2006-02-23 15:00,32.223,25.635,29.706,3.38
2006-02-23 16:00,32.259,25.661,29.767,3.42
2006-02-23 17:00,32.234,25.643,29.731,3.40
2006-02-23 18:00,32.238,25.642,29.771,3.45
2006-02-23 19:00,32.252,25.631,29.976,3.68
2006-02-23 20:00,32.255,25.632,29.993,3.70
2006-02-23 21:00,32.297,25.651,30.161,3.86
2006-02-23 22:00,32.264,25.636,30.033,3.73
2006-02-23 23:00,32.265,25.628,30.110,3.83
2006-02-24 00:00,32.264,25.641,29.987,3.68
2006-02-24 01:00,32.263,25.640,29.981,3.67
2006-02-24 02:00,32.263,25.641,29.980,3.67
2006-02-24 03:00,32.260,25.644,29.921,3.61
2006-02-24 04:00,32.290,25.666,29.968,3.63
2006-02-24 05:00,32.280,25.648,30.056,3.75
2006-02-24 06:00,32.325,25.656,30.332,4.03
2006-02-24 07:00,32.263,25.640,29.983,3.68
2006-02-24 08:00,32.261,25.631,30.052,3.76
2006-02-24 09:00,32.261,25.628,30.076,3.79
2006-02-24 10:00,32.258,25.638,29.967,3.66
2006-02-24 11:00,32.256,25.637,29.951,3.64
2006-02-24 12:00,32.250,25.635,29.929,3.62
2006-02-24 13:00,32.248,25.620,30.043,3.76
2006-02-24 14:00,32.265,25.615,30.221,3.96
2006-02-24 15:00,32.253,25.585,30.380,4.16
2006-02-24 16:00,32.303,25.614,30.523,4.28
2006-02-24 17:00,32.283,25.603,30.457,4.22
2006-02-24 18:00,32.270,25.596,30.425,4.20
2006-02-24 19:00,32.258,25.584,30.428,4.21
2006-02-24 20:00,32.258,25.583,30.441,4.23
2006-02-24 21:00,32.256,25.579,30.459,4.25
2006-02-24 22:00,,,,
2006-02-24 23:00,32.240,25.570,30.418,4.22
2006-02-25 00:00,32.246,25.572,30.444,4.24
2006-02-25 01:00,32.242,25.570,30.433,4.24
2006-02-25 02:00,32.241,25.570,30.424,4.23
2006-02-25 03:00,32.245,25.570,30.449,4.25
2006-02-25 04:00,32.252,25.573,30.473,4.27
2006-02-25 05:00,32.268,25.584,30.501,4.29
2006-02-25 06:00,32.280,25.590,30.543,4.33
2006-02-25 07:00,32.282,25.596,30.509,4.29
2006-02-25 08:00,32.282,25.605,30.436,4.20
2006-02-25 09:00,32.281,25.595,30.512,4.29
2006-02-25 10:00,32.278,25.594,30.496,4.28
2006-02-25 11:00,32.267,25.585,30.490,4.28
2006-02-25 12:00,32.263,25.586,30.451,4.24
2006-02-25 13:00,32.259,25.588,30.409,4.19
2006-02-25 14:00,32.255,25.585,30.398,4.18
2006-02-25 15:00,32.270,25.591,30.465,4.25
2006-02-25 16:00,32.281,25.597,30.491,4.27
2006-02-25 17:00,32.284,25.600,30.495,4.27
2006-02-25 18:00,32.309,25.619,30.524,4.28
2006-02-25 19:00,32.315,25.631,30.467,4.20
2006-02-25 20:00,32.316,25.626,30.519,4.26
2006-02-25 21:00,32.326,25.630,30.562,4.30
2006-02-25 22:00,32.283,25.598,30.496,4.27
2006-02-25 23:00,32.294,25.603,30.543,4.31
2006-02-26 00:00,32.269,25.589,30.473,4.26
2006-02-26 01:00,32.273,25.593,30.471,4.25
2006-02-26 02:00,32.252,25.585,30.378,4.16
2006-02-26 03:00,32.259,25.589,30.399,4.18
2006-02-26 04:00,32.274,25.597,30.446,4.22
2006-02-26 05:00,32.305,25.609,30.574,4.34
2006-02-26 06:00,32.297,25.632,30.319,4.04
2006-02-26 07:00,,,,
2006-02-26 08:00,32.309,25.656,30.206,3.90
2006-02-26 09:00,32.309,25.658,30.189,3.88
2006-02-26 10:00,32.317,25.655,30.273,3.97
2006-02-26 11:00,32.309,25.634,30.395,4.12
2006-02-26 12:00,32.304,25.620,30.476,4.22
2006-02-26 13:00,32.300,25.618,30.465,4.22
2006-02-26 14:00,32.302,25.619,30.467,4.22
2006-02-26 15:00,32.304,25.620,30.472,4.22
2006-02-26 16:00,32.318,25.630,30.494,4.23
2006-02-26 17:00,32.302,25.647,30.228,3.93
2006-02-26 18:00,32.335,25.670,30.288,3.97
2006-02-26 19:00,32.354,25.695,30.219,3.87
2006-02-26 20:00,32.357,25.696,30.231,3.88
2006-02-26 21:00,32.353,25.695,30.210,3.86
2006-02-26 22:00,32.353,25.696,30.205,3.85
2006-02-27 00:00,32.312,25.665,30.153,3.83
2006-02-27 01:00,32.324,25.657,30.311,4.01
2006-02-27 02:00,32.333,25.654,30.411,4.12
2006-02-27 03:00,32.345,25.665,30.412,4.11
2006-02-27 04:00,32.350,25.673,30.372,4.05
2006-02-27 05:00,32.361,25.673,30.456,4.14
2006-02-27 06:00,32.369,25.693,30.350,4.01
2006-02-27 07:00,32.349,25.702,30.120,3.75
2006-02-27 08:00,32.360,25.705,30.174,3.81
2006-02-27 09:00,32.361,25.703,30.198,3.84
2006-02-27 10:00,32.352,25.703,30.127,3.76
2006-02-27 11:00,32.392,25.699,30.476,4.14
2006-02-27 12:00,32.377,25.693,30.414,4.08
2006-02-27 13:00,32.354,25.684,30.314,3.98
2006-02-27 14:00,32.361,25.700,30.227,3.87
2006-02-27 15:00,32.372,25.688,30.413,4.08
2006-02-27 16:00,32.369,25.700,30.288,3.93
2006-02-27 17:00,32.374,25.700,30.322,3.97
2006-02-27 18:00,32.386,25.702,30.405,4.06
2006-02-27 19:00,32.376,25.695,30.379,4.04
2006-02-27 20:00,32.401,25.710,30.446,4.09
2006-02-27 21:00,32.396,25.707,30.433,4.08
2006-02-27 22:00,32.376,25.704,30.309,3.95
2006-02-27 23:00,32.383,25.717,30.250,3.88
2006-02-28 00:00,32.358,25.706,30.152,3.78
2006-02-28 01:00,32.370,25.703,30.266,3.91
2006-02-28 02:00,32.386,25.703,30.394,4.04
2006-02-28 03:00,32.377,25.711,30.259,3.89
2006-02-28 04:00,32.400,25.712,30.422,4.06
2006-02-28 05:00,32.388,25.714,30.315,3.95
2006-02-28 06:00,32.358,25.718,30.045,3.65
2006-02-28 07:00,32.362,25.714,30.107,3.72
2006-02-28 08:00,32.369,25.714,30.164,3.79
2006-02-28 09:00,32.359,25.708,30.142,3.77
2006-02-28 10:00,,,,
2006-02-28 11:00,32.340,25.721,29.873,3.47
2006-02-28 12:00,32.322,25.728,29.665,3.23
2006-02-28 13:00,32.363,25.736,29.926,3.51
2006-02-28 14:00,32.403,25.731,30.283,3.89
2006-02-28 15:00,32.433,25.734,30.484,4.10
2006-02-28 16:00,32.422,25.735,30.399,4.01
2006-02-28 17:00,32.426,25.736,30.421,4.03
2006-02-28 18:00,32.400,25.733,30.245,3.85
2006-02-28 19:00,32.315,25.712,29.757,3.35
2006-02-28 20:00,32.304,25.706,29.724,3.32
2006-02-28 21:00,32.303,25.703,29.730,3.33
2006-02-28 22:00,32.298,25.702,29.702,3.30
2006-02-28 23:00,32.290,25.702,29.638,3.23
2006-03-01 00:00,32.277,25.704,29.513,3.10
2006-03-01 01:00,32.327,25.716,29.815,3.41
2006-03-01 02:00,32.389,25.726,30.218,3.83
2006-03-01 03:00,32.389,25.722,30.258,3.88
2006-03-01 04:00,32.390,25.722,30.259,3.88
2006-03-01 05:00,32.388,25.719,30.275,3.90
2006-03-01 06:00,32.394,25.725,30.268,3.88
2006-03-01 07:00,32.361,25.722,30.036,3.64
2006-03-01 08:00,32.350,25.717,29.992,3.60
2006-03-01 09:00,32.350,25.712,30.033,3.65
2006-03-01 10:00,32.335,25.716,29.877,3.48
2006-03-01 11:00,32.357,25.725,29.979,3.58
2006-03-01 12:00,32.364,25.720,30.079,3.69
2006-03-01 13:00,32.364,25.724,30.040,3.64
2006-03-01 14:00,32.383,25.723,30.200,3.82
2006-03-01 15:00,32.390,25.724,30.243,3.86
2006-03-01 16:00,32.396,25.725,30.279,3.90
2006-03-01 18:00,32.392,25.721,30.289,3.91
2006-03-01 19:00,32.393,25.724,30.269,3.89
2006-03-01 20:00,32.389,25.725,30.234,3.85
2006-03-01 21:00,32.385,25.733,30.131,3.73
2006-03-01 22:00,32.367,25.723,30.073,3.68
2006-03-01 23:00,32.364,25.725,30.029,3.63
2006-03-02 00:00,32.372,25.728,30.070,3.67
2006-03-02 01:00,32.390,25.728,30.213,3.82
2006-03-02 02:00,32.400,25.730,30.274,3.89
2006-03-02 03:00,32.399,25.727,30.283,3.90
2006-03-02 04:00,32.403,25.729,30.300,3.91
2006-03-02 05:00,32.403,25.732,30.281,3.89
2006-03-02 06:00,32.401,25.728,30.295,3.91
2006-03-02 07:00,32.404,25.732,30.279,3.89
2006-03-02 08:00,32.402,25.732,30.271,3.88
2006-03-02 09:00,32.403,25.733,30.265,3.87
2006-03-02 10:00,32.399,25.732,30.250,3.86
2006-03-02 11:00,32.400,25.735,30.226,3.83
2006-03-02 12:00,32.400,25.734,30.237,3.84
2006-03-02 13:00,32.400,25.733,30.241,3.85
2006-03-02 14:00,32.402,25.735,30.237,3.84
2006-03-02 15:00,32.404,25.738,30.226,3.83
2006-03-02 16:00,32.405,25.740,30.224,3.82
2006-03-02 17:00,32.404,25.742,30.197,3.79
2006-03-02 18:00,32.413,25.743,30.259,3.86
2006-03-02 19:00,32.389,25.723,30.249,3.87
2006-03-02 20:00,32.404,25.739,30.215,3.81
2006-03-02 21:00,32.401,25.733,30.250,3.86
2006-03-02 22:00,32.399,25.735,30.217,3.82
2006-03-02 23:00,32.398,25.738,30.183,3.78
2006-03-03 00:00,32.392,25.739,30.131,3.72
2006-03-03 01:00,32.399,25.742,30.154,3.74
2006-03-03 02:00,32.418,25.744,30.290,3.89
2006-03-03 03:00,32.420,25.746,30.284,3.88
2006-03-03 04:00,32.428,25.748,30.332,3.93
2006-03-03 05:00,32.443,25.754,30.393,3.98
2006-03-03 06:00,32.447,25.757,30.402,3.99
2006-03-03 07:00,32.434,25.748,30.373,3.97
2006-03-03 08:00,32.436,25.758,30.299,3.88
2006-03-03 09:00,32.428,25.751,30.299,3.89
2006-03-03 10:00,32.380,25.748,29.953,3.52
2006-03-03 11:00,32.364,25.744,29.855,3.42
2006-03-03 12:00,32.368,25.749,29.839,3.40
2006-03-03 13:00,32.366,25.749,29.830,3.39
2006-03-03 14:00,32.368,25.749,29.842,3.40
2006-03-03 15:00,32.375,25.750,29.891,3.45
2006-03-03 16:00,32.382,25.750,29.948,3.51
2006-03-03 17:00,32.430,25.758,30.261,3.84
2006-03-03 18:00,32.432,25.759,30.271,3.85
2006-03-03 19:00,32.420,25.759,30.173,3.74
2006-03-03 20:00,32.392,25.758,29.958,3.52
2006-03-03 21:00,32.371,25.749,29.868,3.43
2006-03-03 22:00,32.349,25.743,29.740,3.30
2006-03-03 23:00,32.351,25.751,29.681,3.22
2006-03-04 00:00,,,,
2006-03-04 01:00,32.364,25.754,29.767,3.32
2006-03-04 02:00,32.366,25.755,29.774,3.32
2006-03-04 03:00,32.356,25.752,29.722,3.27
2006-03-04 04:00,32.360,25.754,29.730,3.28
2006-03-04 05:00,32.377,25.759,29.821,3.37
2006-03-04 06:00,32.384,25.760,29.869,3.42
2006-03-04 07:00,32.382,25.758,29.871,3.42
2006-03-04 08:00,32.369,25.753,29.809,3.36
2006-03-04 09:00,32.377,25.760,29.815,3.36
2006-03-04 10:00,,,,
2006-03-04 12:00,32.389,25.766,29.856,3.40
2006-03-04 13:00,32.394,25.767,29.885,3.43
2006-03-04 14:00,32.398,25.767,29.921,3.47
2006-03-04 15:00,32.395,25.763,29.937,3.49
2006-03-04 16:00,32.399,25.767,29.934,3.48
2006-03-04 17:00,32.399,25.766,29.942,3.49
2006-03-04 18:00,32.398,25.765,29.941,3.49
2006-03-04 19:00,32.401,25.766,29.957,3.51
2006-03-04 21:00,32.401,25.766,29.951,3.50
2006-03-04 22:00,32.404,25.769,29.956,3.50
2006-03-04 23:00,32.408,25.772,29.962,3.51
2006-03-05 00:00,,,,
2006-03-05 01:00,32.417,25.775,30.009,3.55
2006-03-05 02:00,32.413,25.775,29.980,3.52
2006-03-05 03:00,32.415,25.776,29.985,3.53
2006-03-05 04:00,32.418,25.777,29.996,3.54
2006-03-05 05:00,32.412,25.775,29.962,3.50
2006-03-05 06:00,32.413,25.778,29.946,3.48
2006-03-05 07:00,32.415,25.778,29.958,3.49
2006-03-05 08:00,32.419,25.781,29.967,3.50
2006-03-05 09:00,,,,
2006-03-05 10:00,32.423,25.781,30.003,3.54
2006-03-05 11:00,32.424,25.780,30.016,3.55
2006-03-05 12:00,32.432,25.785,30.036,3.57
2006-03-05 13:00,32.434,25.783,30.070,3.61
2006-03-05 14:00,32.436,25.785,30.067,3.60
2006-03-05 15:00,32.436,25.784,30.075,3.61
2006-03-05 16:00,32.435,25.783,30.077,3.62
2006-03-05 17:00,32.428,25.782,30.034,3.57
2006-03-05 18:00,32.430,25.783,30.038,3.57
2006-03-05 19:00,32.431,25.779,30.084,3.63
2006-03-05 20:00,32.429,25.777,30.077,3.62
2006-03-05 21:00,32.431,25.779,30.085,3.63
2006-03-05 22:00,32.427,25.778,30.059,3.60
2006-03-05 23:00,32.428,25.779,30.055,3.60
2006-03-06 00:00,32.430,25.781,30.061,3.60
2006-03-06 01:00,,,,
2006-03-06 02:00,32.435,25.784,30.062,3.60
2006-03-06 03:00,32.435,25.784,30.063,3.60
2006-03-06 04:00,32.439,25.786,30.087,3.62
2006-03-06 05:00,32.440,25.786,30.089,3.62
2006-03-06 06:00,32.439,25.787,30.073,3.61
2006-03-06 07:00,32.444,25.790,30.090,3.62
2006-03-06 08:00,32.448,25.791,30.112,3.64
2006-03-06 09:00,32.451,25.791,30.137,3.67
2006-03-06 10:00,32.455,25.794,30.144,3.67
2006-03-06 11:00,32.457,25.795,30.146,3.68
2006-03-06 12:00,32.457,25.795,30.149,3.68
2006-03-06 13:00,32.459,25.795,30.160,3.69
2006-03-06 14:00,32.460,25.795,30.167,3.70
2006-03-06 15:00,32.461,25.795,30.171,3.70
2006-03-06 16:00,32.462,25.795,30.185,3.72
2006-03-06 17:00,32.462,25.794,30.194,3.73
2006-03-06 18:00,32.465,25.795,30.207,3.74
2006-03-06 19:00,32.469,25.794,30.243,3.78
2006-03-06 20:00,32.475,25.793,30.308,3.85
2006-03-06 21:00,32.480,25.798,30.304,3.84
2006-03-06 22:00,32.484,25.799,30.316,3.85
2006-03-06 23:00,32.479,25.797,30.302,3.84
2006-03-07 00:00,32.480,25.799,30.285,3.82
2006-03-07 01:00,32.476,25.799,30.261,3.79
2006-03-07 02:00,32.468,25.790,30.270,3.81
2006-03-07 03:00,32.468,25.796,30.223,3.76
2006-03-07 04:00,32.470,25.797,30.232,3.77
2006-03-07 06:00,32.476,25.796,30.287,3.83
2006-03-07 07:00,32.474,25.793,30.300,3.84
2006-03-07 08:00,32.480,25.798,30.303,3.84
2006-03-07 09:00,32.485,25.798,30.342,3.88
2006-03-07 10:00,32.499,25.806,30.379,3.91
2006-03-07 11:00,32.500,25.807,30.378,3.91
2006-03-07 12:00,32.490,25.802,30.342,3.88
2006-03-07 13:00,32.482,25.801,30.292,3.83
2006-03-07 14:00,32.471,25.800,30.214,3.74
2006-03-07 15:00,32.469,25.799,30.203,3.73
2006-03-07 16:00,32.468,25.799,30.195,3.72
2006-03-07 17:00,32.468,25.799,30.201,3.73
2006-03-07 18:00,32.475,25.802,30.224,3.75
2006-03-07 19:00,32.475,25.797,30.267,3.80
2006-03-07 20:00,32.484,25.802,30.299,3.83
2006-03-07 21:00,32.491,25.803,30.347,3.88
2006-03-07 22:00,32.494,25.804,30.356,3.89
2006-03-07 23:00,32.490,25.802,30.346,3.88
2006-03-08 00:00,32.488,25.806,30.285,3.81
2006-03-08 01:00,32.472,25.799,30.223,3.75
2006-03-08 02:00,32.540,25.850,30.312,3.79
2006-03-08 03:00,32.463,25.793,30.214,3.75
2006-03-08 04:00,32.477,25.805,30.222,3.75
2006-03-08 05:00,32.483,25.797,30.334,3.87
2006-03-08 06:00,32.484,25.797,30.338,3.88
2006-03-08 07:00,32.465,25.788,30.264,3.81
2006-03-08 08:00,32.470,25.796,30.241,3.78
2006-03-08 09:00,32.473,25.798,30.239,3.77
2006-03-08 10:00,32.489,25.803,30.323,3.86
2006-03-08 11:00,32.485,25.805,30.275,3.80
2006-03-08 12:00,32.489,25.806,30.297,3.82
2006-03-08 13:00,32.492,25.805,30.333,3.86
2006-03-08 14:00,32.484,25.802,30.299,3.83
2006-03-08 15:00,32.462,25.798,30.159,3.69
2006-03-08 16:00,32.460,25.796,30.155,3.68
2006-03-08 17:00,32.458,25.796,30.144,3.67
2006-03-08 18:00,32.457,25.795,30.148,3.68
2006-03-08 19:00,32.458,25.793,30.171,3.70
2006-03-08 20:00,32.461,25.794,30.188,3.72
2006-03-08 21:00,32.468,25.796,30.225,3.76
2006-03-08 22:00,32.476,25.799,30.255,3.79
2006-03-08 23:00,32.475,25.799,30.248,3.78
2006-03-09 00:00,32.471,25.798,30.229,3.76
2006-03-09 01:00,32.459,25.784,30.257,3.81
2006-03-09 02:00,32.456,25.785,30.229,3.78
2006-03-09 03:00,32.448,25.791,30.103,3.63
2006-03-09 04:00,32.433,25.785,30.042,3.58
2006-03-09 05:00,32.422,25.781,29.990,3.52
2006-03-09 06:00,32.420,25.782,29.968,3.50
2006-03-09 07:00,32.412,25.779,29.929,3.46
2006-03-09 08:00,32.420,25.781,29.977,3.51
2006-03-09 09:00,32.431,25.785,30.028,3.56
2006-03-09 10:00,32.443,25.790,30.078,3.61
2006-03-09 11:00,32.447,25.791,30.100,3.63
2006-03-09 12:00,32.449,25.795,30.086,3.61
2006-03-09 13:00,32.431,25.785,30.030,3.56
2006-03-09 14:00,32.422,25.784,29.962,3.49
2006-03-09 15:00,32.409,25.779,29.902,3.43
2006-03-09 16:00,32.391,25.774,29.807,3.34
2006-03-09 17:00,32.390,25.773,29.803,3.33
2006-03-09 18:00,32.386,25.772,29.780,3.31
2006-03-09 19:00,32.384,25.771,29.772,3.30
2006-03-09 20:00,32.383,25.770,29.778,3.31
2006-03-09 21:00,32.382,25.770,29.766,3.30
2006-03-09 22:00,32.426,25.798,29.873,3.38
2006-03-10 00:00,32.401,25.773,29.896,3.43
2006-03-10 01:00,32.397,25.773,29.861,3.39
2006-03-10 02:00,32.391,25.768,29.849,3.39
2006-03-10 03:00,32.386,25.767,29.828,3.37
2006-03-10 04:00,,,,
2006-03-10 05:00,,,,
2006-03-10 06:00,32.383,25.767,29.796,3.33
2006-03-10 07:00,32.383,25.767,29.802,3.34
2006-03-10 08:00,32.385,25.768,29.809,3.34
2006-03-10 09:00,32.386,25.769,29.806,3.34
2006-03-10 10:00,32.387,25.770,29.813,3.35
2006-03-10 11:00,32.387,25.768,29.819,3.36
2006-03-10 12:00,32.391,25.770,29.835,3.37
2006-03-10 13:00,32.387,25.768,29.823,3.36
2006-03-10 14:00,32.389,25.769,29.833,3.37
2006-03-10 15:00,32.389,25.770,29.827,3.36
2006-03-10 16:00,32.389,25.768,29.836,3.37
2006-03-10 17:00,32.389,25.769,29.829,3.37
2006-03-10 18:00,32.389,25.767,29.854,3.39
2006-03-10 19:00,32.391,25.769,29.850,3.39
2006-03-10 20:00,32.389,25.766,29.861,3.40
2006-03-10 21:00,32.390,25.767,29.862,3.40
2006-03-10 22:00,32.388,25.766,29.853,3.39
2006-03-10 23:00,32.386,25.766,29.836,3.38
2006-03-11 00:00,32.382,25.765,29.812,3.35
2006-03-11 01:00,32.385,25.765,29.829,3.37
2006-03-11 02:00,,,,
2006-03-11 03:00,,,,
2006-03-11 04:00,32.365,25.759,29.728,3.27
2006-03-11 05:00,32.360,25.755,29.728,3.27
2006-03-11 06:00,32.358,25.745,29.799,3.36
2006-03-11 07:00,32.339,25.732,29.763,3.34
2006-03-11 08:00,32.329,25.726,29.730,3.31
2006-03-11 09:00,32.327,25.725,29.728,3.31
2006-03-11 10:00,32.339,25.729,29.785,3.36
2006-03-11 11:00,32.343,25.732,29.790,3.36
2006-03-11 12:00,32.340,25.731,29.781,3.36
2006-03-11 13:00,32.349,25.739,29.782,3.35
2006-03-11 14:00,32.339,25.731,29.774,3.35
2006-03-11 15:00,32.342,25.732,29.789,3.36
2006-03-11 16:00,32.338,25.727,29.799,3.38
2006-03-11 17:00,32.331,25.718,29.826,3.42
2006-03-11 18:00,32.336,25.720,29.851,3.44
2006-03-11 19:00,32.344,25.720,29.909,3.51
2006-03-11 20:00,32.352,25.720,29.979,3.58
2006-03-11 21:00,32.355,25.722,29.988,3.59
2006-03-11 22:00,32.352,25.719,29.990,3.60
2006-03-11 23:00,32.356,25.722,29.992,3.59
2006-03-12 00:00,32.363,25.732,29.963,3.55
2006-03-12 01:00,32.357,25.724,29.983,3.58
2006-03-12 02:00,32.371,25.741,29.944,3.52
2006-03-12 03:00,32.360,25.726,29.988,3.58
2006-03-12 04:00,32.358,25.727,29.959,3.55
2006-03-12 05:00,32.357,25.724,29.981,3.58
2006-03-12 06:00,32.357,25.725,29.972,3.57
2006-03-12 07:00,32.360,25.727,29.984,3.58
2006-03-12 08:00,32.364,25.729,29.990,3.58
2006-03-12 09:00,32.358,25.727,29.964,3.56
2006-03-12 10:00,32.362,25.729,29.980,3.57
2006-03-12 11:00,32.368,25.733,29.991,3.58
2006-03-12 12:00,32.365,25.731,29.981,3.57
2006-03-12 13:00,32.363,25.732,29.959,3.55
2006-03-12 14:00,32.357,25.730,29.924,3.51
2006-03-12 15:00,32.362,25.732,29.954,3.54
2006-03-12 16:00,32.364,25.735,29.943,3.53
2006-03-12 17:00,32.365,25.735,29.954,3.54
2006-03-12 18:00,32.370,25.737,29.965,3.55
2006-03-12 19:00,32.374,25.742,29.964,3.54
2006-03-12 20:00,32.378,25.744,29.974,3.55
2006-03-12 21:00,32.382,25.743,30.020,3.60
2006-03-12 22:00,32.369,25.733,30.003,3.59
2006-03-12 23:00,32.374,25.743,29.952,3.53
2006-03-13 00:00,32.363,25.731,29.966,3.56
2006-03-13 01:00,32.358,25.726,29.973,3.57
2006-03-13 02:00,32.349,25.719,29.959,3.56
2006-03-13 03:00,32.366,25.736,29.952,3.54
2006-03-13 04:00,32.349,25.723,29.930,3.53
2006-03-13 05:00,32.346,25.721,29.921,3.52
2006-03-13 06:00,32.352,25.725,29.936,3.53
2006-03-13 07:00,32.353,25.722,29.973,3.57
2006-03-13 08:00,,,,
2006-03-13 09:00,32.367,25.735,29.963,3.55
2006-03-13 10:00,32.368,25.735,29.979,3.57
2006-03-13 11:00,32.376,25.743,29.963,3.54
2006-03-13 12:00,32.374,25.740,29.972,3.55
2006-03-13 13:00,32.378,25.743,29.976,3.55
2006-03-13 14:00,32.375,25.740,29.982,3.56
2006-03-13 15:00,32.373,25.738,29.987,3.57
2006-03-13 16:00,32.372,25.737,29.986,3.57
2006-03-13 17:00,32.374,25.739,29.980,3.56
2006-03-13 18:00,32.368,25.734,29.982,3.57
2006-03-13 19:00,32.368,25.735,29.974,3.56
2006-03-13 20:00,32.365,25.731,29.982,3.57
2006-03-13 21:00,32.367,25.733,29.984,3.57
2006-03-13 22:00,32.369,25.735,29.978,3.56
2006-03-13 23:00,32.374,25.740,29.972,3.55
2006-03-14 00:00,32.372,25.738,29.975,3.56
2006-03-14 01:00,32.368,25.735,29.974,3.56
2006-03-14 02:00,32.369,25.735,29.978,3.56
2006-03-14 03:00,32.366,25.733,29.974,3.56
2006-03-14 04:00,32.371,25.737,29.980,3.56
2006-03-14 05:00,32.374,25.740,29.979,3.56
2006-03-14 06:00,32.383,25.744,30.005,3.58
2006-03-14 07:00,32.380,25.742,30.006,3.59
2006-03-14 08:00,32.369,25.726,30.065,3.67
2006-03-14 09:00,32.376,25.737,30.016,3.60
2006-03-14 10:00,32.372,25.732,30.025,3.62
2006-03-14 11:00,32.360,25.718,30.063,3.67
2006-03-14 12:00,32.366,25.726,30.035,3.63
2006-03-14 13:00,32.363,25.724,30.026,3.63
2006-03-14 14:00,32.367,25.728,30.020,3.62
2006-03-14 15:00,32.363,25.724,30.027,3.63
2006-03-14 16:00,32.365,25.727,30.015,3.61
2006-03-14 17:00,,,,
2006-03-14 18:00,32.355,25.716,30.042,3.65
2006-03-14 19:00,32.365,25.723,30.058,3.66
2006-03-14 20:00,32.361,25.716,30.082,3.70
2006-03-14 21:00,32.369,25.725,30.068,3.67
2006-03-14 22:00,32.379,25.736,30.051,3.64
2006-03-14 23:00,32.352,25.706,30.101,3.73
2006-03-15 00:00,32.351,25.706,30.098,3.72
2006-03-15 01:00,32.365,25.719,30.088,3.70
2006-03-15 02:00,32.357,25.712,30.089,3.71
2006-03-15 03:00,32.365,25.722,30.064,3.67
2006-03-15 04:00,32.367,25.721,30.095,3.70
2006-03-15 05:00,32.363,25.714,30.118,3.74
2006-03-15 07:00,32.361,25.711,30.132,3.76
2006-03-15 08:00,32.373,25.719,30.147,3.76
2006-03-15 09:00,32.319,25.678,30.091,3.75
2006-03-15 10:00,32.364,25.706,30.202,3.84
2006-03-15 11:00,32.362,25.704,30.198,3.83
2006-03-15 12:00,32.334,25.688,30.121,3.77
2006-03-15 13:00,32.349,25.702,30.119,3.75
2006-03-15 14:00,32.328,25.688,30.076,3.72
2006-03-15 15:00,32.342,25.697,30.109,3.75
2006-03-15 16:00,32.333,25.689,30.108,3.76
2006-03-15 17:00,,,,
2006-03-15 18:00,32.328,25.686,30.097,3.75
2006-03-15 19:00,,,,
2006-03-15 20:00,32.309,25.680,29.988,3.64
2006-03-15 21:00,32.367,25.717,30.128,3.74
2006-03-15 22:00,32.307,25.692,29.872,3.50
2006-03-15 23:00,32.309,25.695,29.855,3.48
2006-03-16 00:00,32.316,25.698,29.886,3.51
2006-03-16 01:00,32.315,25.695,29.904,3.53
2006-03-16 02:00,32.320,25.695,29.950,3.58
2006-03-16 03:00,32.324,25.694,29.985,3.62
2006-03-16 04:00,32.332,25.695,30.042,3.68
2006-03-16 05:00,32.329,25.694,30.024,3.66
2006-03-16 06:00,32.331,25.698,30.004,3.63
2006-03-16 07:00,32.327,25.702,29.947,3.57
2006-03-16 08:00,32.323,25.711,29.833,3.43
2006-03-16 09:00,32.325,25.712,29.834,3.43
2006-03-16 10:00,32.325,25.715,29.806,3.40
2006-03-16 11:00,32.325,25.717,29.793,3.38
2006-03-16 12:00,32.330,25.719,29.809,3.40
2006-03-16 13:00,32.332,25.718,29.843,3.44
2006-03-16 14:00,32.340,25.717,29.906,3.51
2006-03-16 15:00,32.345,25.717,29.951,3.56
2006-03-16 16:00,32.347,25.715,29.980,3.59
2006-03-16 17:00,32.347,25.715,29.988,3.60
2006-03-16 18:00,32.348,25.714,29.994,3.60
2006-03-16 19:00,32.338,25.716,29.904,3.51
2006-03-16 20:00,32.339,25.719,29.886,3.48
2006-03-16 21:00,32.339,25.718,29.898,3.50
2006-03-16 22:00,32.332,25.726,29.762,3.34
2006-03-16 23:00,32.333,25.722,29.808,3.39
2006-03-17 00:00,32.334,25.722,29.817,3.40
2006-03-17 01:00,32.333,25.724,29.791,3.38
2006-03-17 02:00,32.344,25.722,29.901,3.50
2006-03-17 03:00,32.355,25.726,29.951,3.55
2006-03-17 04:00,32.352,25.722,29.955,3.55
2006-03-17 05:00,32.354,25.726,29.934,3.53
2006-03-17 06:00,32.350,25.723,29.930,3.53
2006-03-17 07:00,32.347,25.723,29.913,3.51
2006-03-17 08:00,32.348,25.726,29.894,3.48
2006-03-17 09:00,32.344,25.727,29.849,3.43
2006-03-17 10:00,32.341,25.719,29.903,3.50
2006-03-17 11:00,32.343,25.717,29.938,3.54
2006-03-17 12:00,32.343,25.718,29.928,3.53
2006-03-17 13:00,32.345,25.719,29.931,3.53
2006-03-17 14:00,32.346,25.719,29.934,3.53
2006-03-17 15:00,,,,
2006-03-17 16:00,32.353,25.728,29.917,3.51
2006-03-17 17:00,32.355,25.727,29.934,3.53
2006-03-17 18:00,32.352,25.723,29.953,3.55
2006-03-17 19:00,32.353,25.722,29.965,3.56
2006-03-17 20:00,32.347,25.718,29.956,3.56
2006-03-17 21:00,32.346,25.713,29.998,3.61
2006-03-17 22:00,32.341,25.712,29.968,3.58
2006-03-17 23:00,32.345,25.712,29.989,3.60
2006-03-18 00:00,32.345,25.709,30.014,3.63
2006-03-18 01:00,32.357,25.725,29.975,3.57
2006-03-18 02:00,32.347,25.718,29.963,3.57
2006-03-18 03:00,32.345,25.719,29.932,3.53
2006-03-18 04:00,32.348,25.720,29.946,3.55
2006-03-18 05:00,32.350,25.724,29.933,3.53
2006-03-18 06:00,32.350,25.725,29.918,3.51
2006-03-18 07:00,32.356,25.729,29.929,3.52
2006-03-18 08:00,32.367,25.730,30.012,3.61
2006-03-18 09:00,32.383,25.736,30.091,3.68
2006-03-18 10:00,32.387,25.733,30.143,3.74
2006-03-18 11:00,32.398,25.738,30.186,3.78
2006-03-18 12:00,32.398,25.736,30.203,3.80
2006-03-18 13:00,32.398,25.735,30.212,3.81
2006-03-18 14:00,32.394,25.730,30.223,3.83
2006-03-18 15:00,32.388,25.727,30.200,3.81
2006-03-18 16:00,32.404,25.740,30.218,3.82
2006-03-18 17:00,32.406,25.740,30.230,3.83
2006-03-18 18:00,32.399,25.728,30.277,3.89